EDT,Max TemperatureF,Mean TemperatureF,Min TemperatureF,Max Dew PointF,MeanDew PointF,Min DewpointF,Max Humidity, Mean Humidity, Min Humidity, Max Sea Level PressureIn, Mean Sea Level PressureIn, Min Sea Level PressureIn, Max VisibilityMiles, Mean VisibilityMiles, Min VisibilityMiles, Max Wind SpeedMPH, Mean Wind SpeedMPH, Max Gust SpeedMPH,PrecipitationIn, CloudCover, Events, WindDirDegrees
2011-9-1,91,78,66,72,65,63,94,75,42,30.21,30.12,30.00,10,8,2,5,0,,0.01,1,,170
2011-9-2,93,80,68,70,67,64,96,77,41,30.10,30.03,29.93,10,7,0,29,4,41,0.62,3,Fog-Rain-Thunderstorm,8
2011-9-3,87,76,66,72,69,66,100,86,59,30.06,30.00,29.92,10,6,0,7,1,,0.01,2,Fog,70
2011-9-4,88,78,71,71,68,64,94,73,48,29.98,29.88,29.80,10,8,4,8,3,,0.00,2,,195
2011-9-5,78,73,69,73,71,67,100,94,79,29.87,29.78,29.67,10,6,1,14,5,22,0.05,7,Rain-Thunderstorm,188
2011-9-6,84,75,66,73,69,59,100,82,47,29.82,29.70,29.62,10,10,5,12,5,20,0.06,6,Rain,208
2011-9-7,70,66,62,63,60,57,100,85,65,29.96,29.89,29.82,10,9,4,8,2,,0.00,6,,172
2011-9-8,78,68,57,63,60,57,100,84,54,29.95,29.90,29.82,10,7,0,6,1,,0.00,4,Fog,62
2011-9-9,80,70,60,63,60,57,100,77,47,29.91,29.87,29.83,10,9,2,7,2,,0.01,2,,264
2011-9-10,82,71,60,59,57,52,93,65,37,30.05,29.96,29.91,10,10,10,8,4,,0.00,1,,321
2011-9-11,82,71,60,60,57,55,86,64,41,30.07,30.03,29.99,10,10,10,5,3,,0.00,0,,309
2011-9-12,84,72,62,63,58,54,90,67,37,30.13,30.03,29.97,10,10,9,10,4,,0.00,0,,305
2011-9-13,86,72,61,62,58,52,93,65,33,30.06,30.00,29.94,10,10,9,6,2,,0.00,0,,306
2011-9-14,89,74,61,65,59,56,90,63,35,30.02,29.96,29.89,10,10,10,6,2,,0.00,0,,314
2011-9-15,79,70,62,65,60,51,94,74,60,30.09,29.92,29.87,10,10,10,10,2,,0.00,2,,337
2011-9-16,61,58,54,50,43,39,75,61,51,30.30,30.24,30.10,10,10,10,16,8,21,0.00,8,,39
2011-9-17,63,58,53,52,49,45,81,75,67,30.31,30.28,30.24,10,10,10,10,4,,0.00,8,Rain,33
2011-9-18,64,60,55,53,52,50,89,76,61,30.35,30.29,30.25,10,10,10,14,5,,0.00,7,,32
2011-9-19,68,60,55,57,55,52,90,79,66,30.27,30.20,30.10,10,10,10,5,1,,0.00,7,,57
2011-9-20,71,66,60,64,60,57,94,88,75,30.18,30.11,30.07,10,9,6,4,0,,0.02,5,Rain,327
2011-9-21,70,67,64,68,66,64,100,97,88,30.17,30.13,30.04,10,5,0,7,2,,0.94,7,Fog-Rain,53
2011-9-22,75,70,64,70,66,64,100,93,73,30.19,30.12,30.04,10,5,0,6,1,,0.01,6,Fog-Rain,245
2011-9-23,79,71,64,66,65,61,100,93,64,30.09,30.00,29.87,10,5,0,12,2,,1.04,7,Fog-Rain,295
2011-9-24,80,72,64,68,65,63,100,90,64,30.05,29.98,29.91,10,8,1,9,1,,0.00,7,,56
2011-9-25,81,74,66,70,67,64,100,91,65,30.07,30.01,29.92,10,8,0,5,1,,0.01,6,Fog-Rain,123
2011-9-26,79,72,66,71,66,63,100,91,78,30.03,29.95,29.85,10,9,2,7,1,,0.01,7,Rain,195
2011-9-27,82,75,66,70,66,59,100,83,46,29.94,29.87,29.79,10,8,4,10,5,16,0.02,5,Thunderstorm,197
2011-9-28,80,70,60,63,60,54,100,81,42,29.90,29.83,29.77,10,8,0,12,2,16,0.00,2,Fog,253
2011-9-29,80,70,60,60,56,52,97,66,39,29.85,29.80,29.75,10,10,10,17,5,23,0.00,1,,279
2011-9-30,75,66,57,58,50,40,88,64,28,29.80,29.75,29.70,10,10,10,15,5,26,0.00,1,,298